Theta_e
310 310 311 310 310 310 310 310 309 310 310 310 310 311 310 310 310 307 303 304 298 293 295 300 298 296 295 295 290 292 294 295 296 294 295 297 297 298 300 301 302 301 301 301 305 302 299 308 310 308 310 314 315 316
310 310 310 310 310 310 310 310 310 310 310 310 310 310 310 310 310 309 301 303 304 296 295 303 304 304 301 300 296 296 294 295 295 294 295 298 295 298 299 296 304 299 302 304 305 301 307 307 307 310 311 310 312 315
310 310 310 310 310 310 310 310 310 310 310 310 310 310 310 310 309 309 302 301 300 295 296 299 299 303 305 304 304 294 299 299 298 300 296 298 294 296 294 296 300 303 306 306 306 306 305 306 307 309 309 309 312 315
310 310 310 309 309 310 309 309 309 309 309 309 309 309 309 309 309 308 301 302 301 296 290 296 304 303 306 305 304 303 301 303 302 301 296 296 294 298 294 296 297 301 305 305 304 307 308 309 307 307 307 309 310 313
309 309 309 309 309 309 309 309 309 309 309 309 309 309 309 309 308 309 307 304 305 297 291 293 302 304 306 305 303 304 302 301 299 297 296 294 298 296 299 298 300 304 300 301 302 305 306 307 307 307 306 307 310 310
309 309 309 309 309 309 309 309 309 309 309 309 309 309 309 308 308 306 299 305 306 304 294 291 301 300 303 305 303 301 303 302 300 297 296 301 298 296 294 296 299 302 303 302 298 303 304 305 305 307 306 307 309 310
309 309 309 309 309 309 309 308 308 308 309 309 309 308 309 308 310 303 301 305 307 305 294 291 294 300 302 305 305 302 302 303 300 299 298 298 299 297 296 294 298 300 300 300 301 300 298 300 300 304 306 308 309 310
309 309 309 309 309 309 308 308 308 308 309 309 308 309 308 307 306 304 308 306 307 300 298 290 292 296 301 295 297 303 300 300 299 297 299 296 298 300 293 298 299 301 301 302 302 302 302 303 304 305 306 307 307 308
309 309 309 309 309 309 308 308 308 308 308 308 308 308 310 309 304 304 308 306 305 298 291 291 288 288 299 296 296 298 300 295 301 297 299 297 298 294 298 302 303 306 305 306 307 306 304 303 303 304 305 306 306 307
309 308 308 309 309 308 308 308 308 308 307 308 309 304 300 305 309 307 301 297 295 294 292 289 293 289 294 294 294 294 295 292 289 293 298 292 293 297 299 300 303 306 309 309 307 307 308 306 305 304 305 306 306 307
308 308 308 308 308 308 307 308 308 308 307 311 306 302 307 309 303 298 293 291 292 289 290 291 291 290 298 291 293 296 291 291 288 290 290 288 288 293 297 300 305 308 310 312 312 313 313 313 309 306 306 306 307 308
308 308 308 308 308 308 308 308 308 310 314 309 309 307 306 301 299 297 295 293 290 293 295 292 292 293 294 297 292 297 291 291 287 292 289 286 291 296 298 299 302 305 307 308 310 309 311 312 314 312 307 306 307 309
308 308 307 308 308 308 308 309 308 308 309 313 307 302 304 305 296 296 292 293 292 300 298 299 294 294 295 296 294 293 288 289 293 290 288 289 297 302 301 300 299 302 305 305 308 309 311 310 314 310 308 309 308 308
307 307 307 308 309 309 308 309 309 309 311 309 309 294 305 300 302 304 302 303 307 307 300 302 298 295 296 293 292 288 291 291 290 287 287 297 301 303 305 305 303 299 300 302 302 306 307 307 310 311 311 312 310 309
307 307 308 309 308 308 308 309 309 314 315 311 310 296 302 308 309 307 308 308 310 309 306 300 302 300 295 291 291 290 289 287 289 288 297 299 301 301 301 304 303 301 300 300 302 301 307 307 308 312 314 314 314 313
307 307 312 308 308 309 308 309 312 318 318 313 309 306 307 305 303 305 305 306 310 310 308 305 302 299 299 301 296 291 290 285 291 297 298 300 301 300 300 301 303 303 302 301 301 303 305 310 312 313 314 315 315 316
306 317 308 308 308 309 309 316 319 314 314 308 307 310 308 307 305 304 305 306 312 307 302 304 296 296 303 297 291 291 289 294 299 300 300 302 301 301 301 301 301 301 301 301 300 303 305 309 313 316 314 316 316 317
315 317 309 308 309 311 319 318 318 314 307 309 303 302 306 305 304 304 306 307 308 307 305 300 303 295 293 289 291 297 300 301 303 301 301 302 303 303 302 301 301 302 302 300 302 302 305 304 307 308 312 318 318 317
311 311 308 308 310 316 318 318 319 309 309 310 308 305 304 302 304 305 304 306 306 307 306 302 296 293 293 296 297 299 300 299 298 300 301 303 303 302 302 302 302 302 303 303 303 302 302 305 306 308 308 313 316 317
307 309 310 309 311 319 313 316 321 313 307 306 305 301 302 303 306 304 304 304 304 302 299 295 295 297 297 298 300 300 300 300 299 297 297 299 300 301 301 300 299 301 301 305 306 299 301 303 303 306 303 300 299 301
312 317 311 315 324 322 315 315 312 313 309 306 305 304 302 305 303 303 302 305 301 299 297 300 300 301 303 302 302 301 300 300 297 297 296 295 298 299 298 299 300 299 299 301 303 301 298 299 301 303 301 301 299 299
322 312 324 323 321 317 316 316 313 314 312 308 305 304 300 298 299 300 305 300 300 301 302 301 301 300 300 300 300 301 300 300 300 298 296 296 296 296 296 297 297 297 298 300 302 299 297 298 299 304 303 299 298 297
314 318 325 318 313 307 306 318 309 310 304 302 303 299 299 298 300 307 299 302 304 307 306 304 304 303 301 301 301 300 299 298 296 296 295 295 296 296 296 297 298 297 297 299 302 303 301 297 299 301 301 300 298 296
310 316 311 310 310 303 315 309 312 309 308 304 301 298 300 300 305 303 299 300 305 308 305 304 303 302 301 300 297 297 297 297 296 296 295 294 294 295 296 297 298 298 299 300 301 302 302 301 298 299 298 298 297 296
305 304 307 295 311 306 303 303 303 305 300 303 300 298 301 304 298 298 297 301 306 306 304 304 303 301 298 297 297 297 299 297 295 294 295 296 295 296 296 297 298 299 300 299 299 299 299 300 300 299 298 297 296 296
297 309 301 307 308 305 305 300 300 300 302 300 301 304 304 301 294 293 300 303 305 306 305 304 302 300 297 297 296 295 296 298 297 294 295 296 295 294 294 294 294 295 300 300 299 298 298 298 298 298 297 297 293 296
300 306 314 317 314 311 309 310 309 306 299 297 302 299 298 292 293 299 304 307 306 306 306 306 302 299 298 297 298 298 298 298 297 295 297 297 297 296 296 294 293 295 298 297 297 297 296 297 297 297 297 297 297 297
312 312 306 311 311 312 304 305 302 300 302 305 303 295 294 295 298 304 306 308 307 305 304 302 302 301 299 299 299 298 298 298 298 297 297 297 297 297 297 297 297 292 297 297 297 297 297 296 296 296 296 296 296 297
311 316 314 308 308 308 308 306 306 309 309 305 300 299 299 304 307 307 305 304 302 301 299 299 299 300 300 300 299 298 297 296 294 291 291 291 292 293 295 295 295 296 297 297 290 292 296 296 296 295 296 296 297 297
311 315 310 308 306 306 310 311 309 309 309 307 305 303 304 303 304 304 304 302 301 299 299 299 300 299 297 297 296 296 297 297 296 293 291 290 290 294 294 294 295 296 296 296 296 296 293 295 294 296 295 295 295 295
317 315 310 311 309 313 311 310 309 308 307 306 307 304 301 298 298 302 302 302 303 303 300 298 299 298 298 297 295 294 294 296 297 297 296 295 295 295 294 295 296 296 296 296 295 295 294 294 294 294 293 293 294 294
316 311 310 306 310 310 310 309 308 308 307 305 304 305 304 300 293 297 303 305 305 301 294 299 298 298 299 298 298 297 292 296 296 296 296 296 296 296 296 296 296 296 295 295 295 294 294 294 294 294 293 294 294 294
315 314 313 312 308 304 308 308 307 305 307 305 304 303 300 297 292 301 307 307 305 302 300 300 300 299 299 298 298 297 295 298 294 289 290 288 287 289 296 297 297 296 295 295 296 296 295 295 295 295 295 294 295 294
Wind_Speed
20 19 18 18 19 17 16 16 16 15 14 14 13 11 11 10 5 6 2 8 4 4 9 13 9 11 9 6 4 9 8 3 6 5 5 3 1 4 2 7 5 3 5 8 7 16 10 13 5 4 9 6 8 7
19 19 17 17 18 17 15 15 15 14 12 13 12 10 10 8 5 6 2 4 3 2 6 14 16 16 17 16 10 7 6 5 6 7 6 4 3 4 2 4 2 3 8 6 9 9 10 14 13 8 8 7 9 10
20 18 16 16 16 16 15 15 14 14 12 11 11 10 8 6 2 5 2 4 2 1 6 8 2 2 4 9 11 8 4 7 7 6 7 3 4 6 5 7 5 4 5 5 3 9 12 12 12 10 11 11 10 11
20 18 17 15 15 15 14 13 13 13 12 10 9 8 7 4 4 6 3 3 1 2 2 2 4 7 5 5 7 11 9 7 9 6 6 4 5 6 5 5 6 7 6 3 10 8 8 7 12 10 13 11 12 12
19 17 16 14 15 14 13 12 12 11 11 10 7 6 6 2 4 2 3 3 1 1 1 5 10 5 5 2 7 8 8 7 6 4 3 5 4 6 2 3 2 3 6 5 7 8 7 8 12 9 13 14 13 15
19 17 16 14 14 14 12 11 11 10 10 8 6 5 4 0 3 2 3 4 5 1 1 3 5 7 13 4 2 5 4 3 4 5 5 0 3 6 5 2 6 7 7 12 4 9 9 12 10 7 15 14 13 14
18 17 16 15 14 13 11 10 10 9 8 7 5 3 0 3 2 2 5 3 6 1 1 3 2 5 10 9 1 4 4 2 4 4 3 3 2 4 3 2 12 12 12 10 11 13 14 12 13 13 13 13 12 12
17 17 16 15 14 12 10 9 8 7 6 2 3 6 9 7 8 2 3 6 1 0 2 3 3 3 7 4 4 6 2 3 5 5 3 5 4 2 3 8 10 11 12 13 9 8 13 15 14 13 13 13 13 11
17 16 17 15 13 11 9 8 6 5 1 3 6 7 3 2 1 3 11 7 3 3 2 2 4 3 6 3 2 4 4 3 5 4 2 7 2 2 15 19 18 18 16 15 16 15 15 15 17 15 14 12 11 11
16 16 16 14 13 10 8 8 5 1 3 8 6 3 2 3 16 8 2 0 2 2 2 1 2 2 3 3 1 0 2 2 3 4 6 6 7 7 13 19 19 20 19 18 19 17 14 14 14 16 15 13 11 11
17 17 16 14 12 10 6 5 1 5 6 3 2 2 3 10 1 1 1 1 1 1 2 1 2 2 2 3 3 2 2 1 1 3 3 2 3 8 19 21 17 18 19 19 19 20 19 18 16 17 17 16 13 12
18 17 17 14 12 7 5 4 6 6 1 4 6 4 2 2 3 3 1 2 1 3 3 1 0 2 2 1 2 1 1 2 3 2 1 2 4 14 13 16 18 20 21 19 19 21 21 21 18 16 16 16 15 14
18 17 17 15 9 6 6 6 10 4 8 3 2 3 2 3 5 4 5 3 3 3 2 1 2 1 2 1 1 2 4 4 1 1 3 3 10 14 16 14 15 17 19 20 20 18 19 16 19 14 14 15 14 14
19 19 16 11 7 8 7 6 11 7 3 4 3 4 2 4 5 2 6 6 4 2 1 2 1 1 1 1 2 1 2 2 3 2 5 8 16 18 18 16 17 17 20 19 18 18 14 11 12 12 11 11 12 12
20 20 14 5 13 12 4 10 14 5 4 3 2 3 4 2 1 3 4 4 3 1 2 1 1 2 2 1 2 2 1 4 3 4 8 11 16 16 18 19 18 18 15 16 16 15 14 9 9 11 11 11 10 10
21 16 3 8 12 5 11 11 7 3 3 2 3 1 3 3 7 7 7 5 4 0 2 3 2 4 3 2 4 6 2 4 3 7 8 10 15 16 17 17 17 16 16 15 16 14 13 14 8 10 10 10 11 12
19 1 5 8 8 2 3 4 4 4 2 2 4 5 4 3 6 6 8 7 2 6 2 0 5 5 4 5 6 5 4 4 7 7 7 11 13 15 16 17 18 17 17 17 16 16 16 16 17 9 8 11 13 14
3 2 1 6 7 2 3 4 3 1 5 3 3 4 6 7 8 8 7 8 5 4 5 4 4 7 5 4 3 3 4 6 5 8 8 9 13 14 14 17 17 17 14 14 17 17 16 14 11 9 13 12 10 10
11 13 16 12 6 4 2 3 3 2 4 4 5 4 4 5 6 8 8 7 6 5 3 4 6 4 4 6 8 7 7 7 7 8 7 10 12 15 16 17 16 17 17 12 13 12 12 15 12 12 11 11 7 4
14 9 6 2 10 3 3 3 2 3 3 4 4 3 1 1 3 2 6 8 6 4 6 4 5 6 6 7 6 6 6 8 8 9 9 10 11 14 14 14 13 15 14 16 14 15 13 13 12 11 11 13 12 11
5 5 3 6 3 2 3 2 4 4 4 4 5 2 1 2 3 4 5 5 7 7 6 5 6 7 6 6 6 6 7 8 8 8 9 10 11 10 11 11 13 12 12 12 13 13 13 11 9 10 12 13 13 11
3 2 3 2 1 2 3 3 3 3 1 5 4 2 2 1 3 4 4 4 4 5 5 5 6 5 7 8 7 9 10 12 9 8 9 11 10 10 10 10 11 11 11 12 11 9 8 7 8 9 10 10 11 12
4 4 2 1 1 3 2 2 1 2 2 4 4 2 2 2 2 5 2 1 3 3 3 4 5 5 5 5 7 10 11 11 8 8 9 10 10 10 10 10 10 10 11 11 11 10 10 11 12 12 13 14 11 13
3 2 2 2 2 2 3 2 1 3 4 3 4 4 2 2 2 2 2 3 2 2 3 3 3 2 3 5 6 8 9 9 8 8 10 10 10 10 10 9 9 10 10 9 10 9 10 9 9 10 12 12 12 11
1 4 1 3 0 2 1 1 1 1 2 2 3 3 3 5 3 3 2 3 2 2 3 4 2 4 5 6 5 6 8 8 8 8 9 9 10 9 9 9 9 11 10 10 10 10 11 11 11 11 13 14 14 14
3 1 2 1 1 3 2 3 3 3 2 1 2 3 3 2 4 3 3 3 3 2 3 3 2 2 5 5 6 6 7 8 9 7 8 8 8 9 10 10 10 10 12 12 12 13 12 12 12 14 13 14 12 13
1 3 2 0 2 1 2 1 1 2 1 1 3 4 4 3 2 3 4 3 2 5 4 3 4 5 5 5 4 4 5 5 8 6 5 7 8 9 9 9 10 10 10 12 12 13 13 12 12 12 12 11 12 12
1 3 3 3 3 2 2 1 1 1 1 2 2 3 1 1 2 4 3 5 6 5 5 5 5 5 5 4 5 5 6 7 7 8 6 5 7 8 10 9 8 10 10 10 13 11 11 11 11 11 10 9 9 10
3 2 3 5 3 4 3 1 1 2 2 2 1 2 4 8 8 9 9 5 4 5 4 5 5 3 3 3 3 5 6 7 11 13 12 9 9 9 9 9 8 8 8 8 4 7 11 10 10 11 11 9 9 8
2 2 3 2 3 1 4 4 4 4 3 5 4 6 9 9 9 9 9 9 6 6 6 5 3 3 4 5 5 5 6 7 8 9 10 9 7 7 8 8 9 8 8 8 8 10 7 8 8 8 10 9 9 10
1 2 3 3 1 3 3 4 5 5 4 4 3 6 9 7 8 8 7 4 1 4 1 3 3 5 7 8 8 8 8 8 10 10 9 8 7 7 6 6 7 7 8 9 7 8 10 10 10 10 10 11 11 10
2 3 3 3 2 3 3 2 3 2 3 4 5 4 5 5 5 0 2 3 4 3 3 3 6 8 7 6 7 6 5 7 9 10 12 10 9 10 8 6 6 7 8 9 9 10 12 12 9 11 11 13 13 13
2 1 2 1 2 3 3 3 2 4 3 3 5 7 5 4 3 3 3 7 5 2 4 6 7 7 8 8 7 5 3 7 8 6 5 5 7 10 9 9 10 10 10 9 8 9 11 13 11 13 12 12 12 12
Wind_Direction
310 316 322 322 323 324 324 322 317 315 312 310 303 295 289 291 258 182 162 183 162 215 284 281 279 294 301 263 303 341 311 17 316 329 333 30 341 56 253 37 333 218 230 192 240 217 129 344 126 286 38 38 9 349
311 316 322 321 322 321 322 323 319 318 319 314 314 310 298 302 268 186 180 185 164 224 290 304 288 286 278 274 297 314 298 351 19 332 11 335 21 343 353 127 30 203 1 21 348 68 90 60 76 78 43 35 11 354
311 316 320 320 322 318 322 325 323 324 326 326 327 326 318 320 171 194 119 128 129 270 265 247 44 39 266 232 249 265 117 346 27 3 304 321 48 320 4 59 263 100 352 136 199 119 95 73 60 54 34 24 9 1
311 319 322 322 320 317 321 323 326 329 334 337 340 344 357 17 144 146 157 160 129 123 285 273 218 317 334 249 221 231 280 286 306 298 305 330 7 5 25 338 316 17 300 62 93 121 142 74 34 19 16 13 7 1
312 318 320 325 318 317 320 320 321 327 333 345 354 357 0 26 140 155 127 189 194 186 317 295 299 24 356 309 244 239 251 278 301 299 309 17 341 335 353 255 234 16 36 1 75 61 348 46 354 350 0 357 357 351
310 316 321 327 316 317 315 315 319 319 325 334 334 348 349 95 163 191 155 151 198 176 259 305 54 20 334 352 223 194 216 255 282 319 355 148 6 320 303 346 19 51 37 32 30 355 341 325 337 338 340 339 347 338
311 316 325 327 316 318 315 317 315 316 322 331 333 17 112 168 106 356 19 38 157 160 263 292 169 92 346 332 68 152 176 251 281 301 254 327 301 291 279 359 46 20 6 351 329 324 313 321 316 324 319 323 327 329
311 318 326 326 317 314 312 316 312 312 324 348 82 80 111 117 107 131 64 107 112 352 282 338 317 100 1 5 352 344 184 210 198 307 270 283 307 290 284 30 345 336 323 311 305 297 301 310 309 312 316 314 320 330
314 322 325 323 318 313 311 310 307 305 342 165 147 139 181 223 79 76 123 94 68 39 20 345 334 12 351 54 308 347 333 279 21 285 5 319 300 280 350 338 339 336 324 312 305 297 291 285 291 292 295 301 307 321
316 323 321 321 318 315 315 308 307 319 145 160 199 191 116 70 116 125 199 188 65 49 42 8 306 342 338 3 70 242 3 25 4 356 336 4 335 350 324 321 311 314 306 303 301 299 302 294 280 278 278 281 285 295
319 320 322 320 317 319 315 295 209 147 165 213 202 76 64 138 178 219 109 5 65 105 150 228 285 319 90 335 22 94 87 27 256 73 313 351 288 307 316 323 329 320 310 306 300 295 292 280 271 273 271 272 277 285
317 320 322 320 317 317 297 256 189 205 166 56 100 108 141 209 226 272 67 158 135 12 141 195 173 233 291 244 262 114 8 193 70 340 331 328 281 316 328 327 325 335 343 329 316 301 290 278 263 257 259 261 266 275
320 321 324 315 320 319 282 253 208 106 152 138 195 164 217 149 31 23 349 323 346 144 168 207 147 216 207 250 297 336 24 44 265 16 30 267 298 336 345 335 335 333 327 343 326 315 303 277 260 239 250 255 261 267
323 322 321 312 328 322 295 214 168 178 251 234 239 24 2 31 17 324 319 321 354 20 163 234 170 177 110 239 355 42 52 272 56 35 16 336 347 341 339 345 348 338 335 333 334 324 317 283 250 235 243 259 262 257
324 327 321 58 343 330 212 167 172 201 252 312 299 33 49 44 344 326 313 279 59 126 198 242 189 205 159 183 185 203 126 58 40 16 358 345 350 346 342 340 346 340 339 334 339 332 324 294 265 247 245 250 259 264
325 310 59 15 4 68 127 151 188 228 234 267 41 346 29 331 33 19 5 358 37 5 144 240 291 273 64 348 65 32 23 50 7 343 3 351 356 354 351 349 347 346 343 343 333 344 341 337 270 262 264 261 259 262
313 34 82 27 359 199 218 259 209 225 334 68 61 29 342 26 4 5 358 359 358 260 347 63 36 356 314 48 28 30 351 320 331 347 5 5 358 357 355 355 352 352 344 349 347 347 355 355 352 329 283 269 263 260
258 132 143 19 332 176 208 227 264 320 83 68 98 66 47 35 12 12 359 5 321 10 34 53 31 35 41 32 344 344 345 344 324 357 345 360 357 355 359 354 351 352 356 350 350 351 347 350 353 347 314 305 280 247
296 298 298 300 286 286 237 141 309 76 64 82 91 53 54 70 21 351 2 12 17 18 57 53 47 45 32 14 358 356 6 0 341 323 352 6 2 350 354 350 352 355 357 10 355 0 349 358 354 3 357 1 343 5
292 268 287 197 201 254 201 89 274 66 67 75 94 47 42 210 253 34 8 12 32 48 45 60 58 47 17 16 1 360 6 343 343 342 353 346 354 346 360 351 352 350 360 5 19 24 2 3 3 14 15 29 26 5
228 123 168 221 187 306 29 11 78 59 123 90 123 121 67 47 39 18 51 30 60 63 80 67 69 72 32 33 26 9 26 356 353 344 350 336 332 345 348 352 353 356 3 4 19 17 14 1 1 15 35 36 35 11
72 210 254 166 261 126 97 30 40 88 105 109 139 131 108 92 31 349 351 51 66 60 46 45 50 35 66 45 41 25 11 351 360 355 0 332 348 352 349 350 352 358 2 3 10 50 32 1 357 22 29 30 32 33
267 219 207 250 191 79 112 218 185 132 120 132 121 179 147 124 218 257 118 80 74 62 43 69 88 62 56 69 46 34 12 356 3 12 1 348 352 356 349 352 359 2 358 360 356 35 38 26 27 34 50 51 41 40
172 328 360 41 45 97 177 164 127 128 124 178 167 136 94 119 219 235 113 120 75 110 120 140 215 171 122 49 32 34 7 359 360 10 9 353 356 357 354 353 8 17 358 351 350 9 17 37 36 42 29 35 49 54
12 357 41 320 183 254 286 220 135 242 25 96 135 115 163 185 200 179 149 121 150 109 107 156 94 29 21 34 38 45 24 356 356 7 15 1 360 360 6 6 22 22 352 359 1 13 16 17 20 28 34 27 25 33
73 91 63 27 60 301 351 338 344 354 23 98 89 115 189 192 203 165 149 109 97 72 50 56 93 112 74 33 25 27 21 10 358 18 16 10 13 4 2 6 7 13 359 358 3 2 7 10 18 15 18 25 22 27
124 141 147 207 301 290 220 117 350 263 234 206 166 182 188 219 162 119 122 146 113 84 86 90 63 56 46 54 62 37 16 19 30 5 357 18 25 13 355 5 7 358 344 1 355 359 354 357 3 7 11 23 23 19
3 190 267 154 223 233 279 282 238 261 160 126 203 199 269 26 84 115 88 89 90 98 89 86 77 66 64 56 34 24 25 6 29 14 8 41 40 22 2 9 24 332 15 19 356 10 2 4 0 11 10 16 28 32
234 175 237 252 241 228 244 297 340 76 89 201 303 76 78 52 43 71 65 64 74 71 115 121 100 93 90 99 63 28 22 16 8 12 14 15 20 12 7 8 13 5 6 13 60 16 355 345 357 352 358 5 6 24
196 208 263 263 258 292 70 358 58 83 41 49 89 122 105 75 48 54 70 61 45 0 12 63 82 14 22 350 29 80 73 31 23 10 359 14 7 3 357 358 358 355 356 356 359 355 351 346 6 7 10 9 9 357
300 238 255 256 336 64 74 105 112 112 117 88 78 115 114 117 83 48 64 71 182 293 274 113 71 28 19 25 18 19 42 41 24 18 8 344 11 10 358 352 347 350 350 347 358 355 0 356 4 359 8 4 3 351
228 261 294 292 99 111 164 168 127 107 117 127 102 107 107 83 76 60 292 305 293 28 52 14 41 50 43 61 58 76 30 41 27 17 12 1 2 355 345 358 353 352 349 355 3 4 4 6 7 8 6 3 2 2
257 247 293 249 167 177 162 184 143 105 98 95 91 74 56 79 105 213 220 229 288 337 69 62 69 71 67 57 49 72 61 76 95 75 55 24 2 343 341 10 0 353 357 348 352 2 2 353 355 351 356 360 358 359